Regional Weather Roundup
Issued by NWS

Home | Current Version | Previous Version | Graphics & Text | Print | Product List | Glossary On
Versions: 1 2 3 4 5 6 7 8 9 10 11 12 13 14 15 16 17 18 19 20 21 22 23 24 25 26 27 28 29 30 31 32 33 34 35 36 37 38 39 40 41 42 43 44 45 46 47 48 49 50
000
ASUS43 KBIS 251710
RWRND

NORTH DAKOTA REGIONAL WEATHER ROUNDUP
NATIONAL WEATHER SERVICE BISMARCK ND
1200 PM CDT WED MAY 25 2016

NOTE: "FAIR" INDICATES FEW OR NO CLOUDS BELOW 12,000 FEET WITH NO
SIGNIFICANT WEATHER AND/OR OBSTRUCTIONS TO VISIBILITY.


NDZ001>003-009>011-017-251800-
NORTHWEST NORTH DAKOTA

CITY           SKY/WX    TMP DP  RH WIND       PRES   REMARKS
WILLISTON      CLOUDY    53  49  86 N18       29.83F
MINOT          CLOUDY    61  54  77 N7        29.81S
MINOT AFB      PTSUNNY   59  54  84 NE9       29.80F
$$

NDZ018>021-031>035-040>046-251800-
SOUTHWEST NORTH DAKOTA

CITY           SKY/WX    TMP DP  RH WIND       PRES   REMARKS
BISMARCK       CLOUDY    61  58  90 E10       29.79F
DICKINSON      CLOUDY    57  52  83 W14       29.79S
GARRISON         N/A     60  56  86 E6        29.80F
HETTINGER ARPT CLOUDY    64  50  60 W16       29.82S
$$

NDZ004>008-012>016-024-026-027-054-251800-
NORTHEAST NORTH DAKOTA

CITY           SKY/WX    TMP DP  RH WIND       PRES   REMARKS
GRAND FORKS    TSTM      66  59  78 E6        29.79R
GRND FRKS AFB  TSTM      63  61  94 W6        29.80R FOG
DEVILS LAKE    LGT RAIN  59  56  89 NW17      29.82S
$$

NDZ022-023-025-028>030-036>039-047>053-251800-
SOUTHEAST NORTH DAKOTA

CITY           SKY/WX    TMP DP  RH WIND       PRES   REMARKS
FARGO          LGT RAIN  65  60  84 SE7       29.76F
$$





USA.gov is the U.S. government's official web portal to all federal, state and local government web resources and services.